Date String (YYYY-MM-DD hh:mm:ss) UTC,Instrument flags,absolute air pressure of the measurement (hPa),sample flow rate (lpm),inlet stack bypass flow (lpm),air temperature of the measurement (°C),ambient temperature measured by the external sensor (°C),aerosol sample conditioner tube jacket temperature (°C),OPC LED temperature (°C),internal box temperature (°C),relative humidity of the measurement (%),span deviation,mass concentration of particles derived from Lorenz-Mie calculation of OPC scattering (μg/m³),mass concentration of particles derived from Lorenz-Mie calculation of OPC scattering (μg/m³),mass concentration of particles derived from Lorenz-Mie calculation of OPC scattering (μg/m³)
DateTimeUTC,F1_M11,P_M11,Q1_M11,Q2_M11,T1_M11,T2_M11,T3_M11,T4_M11,T5_M11,U1_M11,ZSPAN_M11,X0_M11,X2_M11,X1_M11
2024-02-20 14:00:00,SystemResetWarning,0827.7,4.99,000.00,020.7,020.1,000.0,029.1,022.5,15.2,0000.0,0002.79,0001.13,0000.85
2024-02-20 14:01:00,SystemResetWarning,0828.0,4.99,000.00,020.7,020.1,000.0,029.1,022.5,15.2,0000.0,0002.77,0001.11,0000.85
2024-02-20 14:02:00,SystemResetWarning,0828.1,4.99,000.00,020.7,020.2,000.0,029.1,022.5,15.2,0000.0,0002.84,0001.09,0000.84
2024-02-20 14:03:00,SystemResetWarning,0827.8,5.01,000.00,020.7,020.2,000.0,029.1,022.5,15.2,0000.0,0002.35,0001.07,0000.84
2024-02-20 14:04:00,SystemResetWarning,0828.0,5.01,000.00,020.7,020.2,000.0,029.1,022.5,15.2,0000.0,0001.91,0001.07,0000.83
2024-02-20 14:05:00,SystemResetWarning,0828.0,5.00,000.00,020.7,020.2,000.0,029.1,022.5,15.3,0000.0,0001.86,0001.04,0000.82
2024-02-20 14:06:00,SystemResetWarning,0827.9,5.00,000.00,020.7,020.2,000.0,029.1,022.5,15.2,0000.0,0001.84,0001.02,0000.82
2024-02-20 14:07:00,SystemResetWarning,0827.9,5.00,000.00,020.7,020.2,000.0,029.1,022.5,15.2,0000.0,0001.87,0001.01,0000.80
2024-02-20 14:08:00,SystemResetWarning,0827.9,4.99,000.00,020.7,020.2,000.0,029.1,022.5,15.2,0000.0,0002.67,0001.00,0000.78
2024-02-20 14:09:00,SystemResetWarning,0827.8,5.00,000.00,020.7,020.2,000.0,029.1,022.5,15.2,0000.0,0002.59,0000.97,0000.77
2024-02-20 14:10:00,SystemResetWarning,0827.8,4.99,000.00,020.7,020.2,000.0,029.1,022.5,15.2,0000.0,0002.58,0000.97,0000.78
2024-02-20 14:11:00,SystemResetWarning,0828.1,4.99,000.00,020.7,020.2,000.0,029.1,022.5,15.3,0000.0,0002.79,0000.98,0000.78
2024-02-20 14:12:00,SystemResetWarning,0828.0,5.00,000.00,020.7,020.2,000.0,029.1,022.5,15.3,0000.0,0002.73,0000.95,0000.77
2024-02-20 14:13:00,SystemResetWarning,0828.0,5.01,000.00,020.7,020.1,000.0,029.1,022.5,15.3,0000.0,0002.59,0000.94,0000.76
2024-02-20 14:14:00,SystemResetWarning,0827.7,5.00,000.00,020.7,020.1,000.0,029.1,022.5,15.2,0000.0,0002.29,0000.91,0000.75
2024-02-20 14:15:00,SystemResetWarning,0827.6,5.00,000.00,020.7,020.1,000.0,029.1,022.4,15.2,0000.0,0002.24,0000.88,0000.75
2024-02-20 14:16:00,SystemResetWarning,0827.5,5.00,000.00,020.7,020.1,000.0,029.1,022.4,15.2,0000.0,0002.26,0000.89,0000.74
2024-02-20 14:17:00,SystemResetWarning,0827.6,5.01,000.00,020.7,020.1,000.0,029.1,022.4,15.4,0000.0,0002.26,0000.88,0000.74
2024-02-20 14:18:00,SystemResetWarning,0827.9,5.00,000.00,020.7,020.1,000.0,029.1,022.4,15.6,0000.0,0002.31,0000.91,0000.75
2024-02-20 14:19:00,SystemResetWarning,0828.0,4.99,000.00,020.7,020.1,000.0,029.1,022.4,15.5,0000.0,0001.47,0000.91,0000.76
2024-02-20 14:20:00,SystemResetWarning,0827.8,5.00,000.00,020.7,020.1,000.0,029.1,022.4,15.3,0000.0,0001.52,0000.94,0000.75
2024-02-20 14:21:00,SystemResetWarning,0827.9,5.00,000.00,020.7,020.1,000.0,029.1,022.4,15.3,0000.0,0001.51,0000.92,0000.75
2024-02-20 14:22:00,SystemResetWarning,0828.2,4.99,000.00,020.7,020.1,000.0,029.1,022.5,15.3,0000.0,0001.39,0000.94,0000.74
2024-02-20 14:23:00,SystemResetWarning,0828.0,4.99,000.00,020.7,020.1,000.0,029.1,022.5,15.4,0000.0,0001.39,0000.95,0000.74
2024-02-20 14:24:00,SystemResetWarning,0827.8,5.00,000.00,020.7,020.1,000.0,029.1,022.4,15.2,0000.0,0001.45,0000.98,0000.74
2024-02-20 14:25:00,SystemResetWarning,0827.8,5.00,000.00,020.7,020.1,000.0,029.1,022.5,15.4,0000.0,0001.54,0001.00,0000.74
2024-02-20 14:26:00,SystemResetWarning,0827.9,5.00,000.00,020.7,020.1,000.0,029.1,022.5,15.6,0000.0,0001.59,0001.03,0000.75
2024-02-20 14:27:00,SystemResetWarning,0827.9,5.01,000.00,020.7,020.1,000.0,029.1,022.5,15.5,0000.0,0001.57,0001.03,0000.75
2024-02-20 14:28:00,SystemResetWarning,0828.0,5.00,000.00,020.7,020.1,000.0,029.1,022.5,15.5,0000.0,0001.55,0001.03,0000.74
2024-02-20 14:29:00,SystemResetWarning,0828.1,5.01,000.00,020.7,020.1,000.0,029.1,022.5,15.4,0000.0,0001.77,0001.02,0000.74
2024-02-20 14:30:00,SystemResetWarning,0828.0,5.00,000.00,020.7,020.1,000.0,029.1,022.5,15.4,0000.0,0002.01,0001.04,0000.74
2024-02-20 14:31:00,SystemResetWarning,0828.0,5.00,000.00,020.7,020.1,000.0,029.1,022.5,15.4,0000.0,0002.10,0001.05,0000.74
2024-02-20 14:32:00,SystemResetWarning,0827.9,4.99,000.00,020.7,020.2,000.0,029.1,022.5,15.5,0000.0,0002.10,0001.05,0000.74
2024-02-20 14:33:00,SystemResetWarning,0827.8,5.00,000.00,020.7,020.2,000.0,029.1,022.5,15.5,0000.0,0002.08,0001.03,0000.73
2024-02-20 14:34:00,SystemResetWarning,0827.9,5.01,000.00,020.7,020.2,000.0,029.1,022.5,15.6,0000.0,0002.11,0001.05,0000.74
2024-02-20 14:35:00,SystemResetWarning,0828.1,5.01,000.00,020.7,020.2,000.0,029.1,022.5,15.6,0000.0,0002.13,0001.05,0000.75
2024-02-20 14:36:00,SystemResetWarning,0828.1,5.01,000.00,020.7,020.2,000.0,029.1,022.5,15.6,0000.0,0002.07,0001.05,0000.75
2024-02-20 14:37:00,SystemResetWarning,0828.1,5.00,000.00,020.7,020.2,000.0,029.1,022.5,15.6,0000.0,0002.05,0001.04,0000.74
2024-02-20 14:38:00,SystemResetWarning,0828.0,5.00,000.00,020.7,020.2,000.0,029.1,022.5,15.4,0000.0,0002.22,0001.03,0000.75
2024-02-20 14:39:00,SystemResetWarning,0827.9,4.99,000.00,020.7,020.2,000.0,029.1,022.5,15.4,0000.0,0002.48,0001.06,0000.76
2024-02-20 14:40:00,SystemResetWarning,0828.2,5.00,000.00,020.7,020.2,000.0,029.2,022.6,15.6,0000.0,0002.25,0001.05,0000.76
2024-02-20 14:41:00,SystemResetWarning,0828.1,5.01,000.00,020.8,020.2,000.0,029.2,022.6,15.7,0000.0,0002.07,0001.07,0000.76
2024-02-20 14:42:00,SystemResetWarning,0828.1,5.01,000.00,020.8,020.3,000.0,029.2,022.6,15.5,0000.0,0001.98,0001.05,0000.77
2024-02-20 14:43:00,SystemResetWarning,0828.2,4.99,000.00,020.8,020.2,000.0,029.2,022.6,15.5,0000.0,0002.42,0001.04,0000.77
2024-02-20 14:44:00,SystemResetWarning,0828.2,5.00,000.00,020.8,020.2,000.0,029.2,022.6,15.7,0000.0,0003.74,0001.09,0000.77
2024-02-20 14:45:00,SystemResetWarning,0828.3,4.99,000.00,020.8,020.3,000.0,029.2,022.6,15.7,0000.0,0003.72,0001.09,0000.78
2024-02-20 14:46:00,SystemResetWarning,0828.4,5.00,000.00,020.8,020.3,000.0,029.2,022.6,15.3,0000.0,0003.66,0001.06,0000.78
2024-02-20 14:47:00,SystemResetWarning,0828.4,5.01,000.00,020.8,020.3,000.0,029.2,022.6,15.6,0000.0,0003.63,0001.06,0000.79
2024-02-20 14:48:00,SystemResetWarning,0828.3,5.00,000.00,020.8,020.3,000.0,029.2,022.6,15.5,0000.0,0004.32,0001.08,0000.80
2024-02-20 14:49:00,SystemResetWarning,0828.4,5.00,000.00,020.8,020.3,000.0,029.2,022.6,15.4,0000.0,0004.33,0001.08,0000.80
2024-02-20 14:50:00,SystemResetWarning,0828.4,5.00,000.00,020.8,020.3,000.0,029.2,022.7,15.4,0000.0,0004.10,0001.07,0000.80
2024-02-20 14:51:00,SystemResetWarning,0828.3,5.00,000.00,020.8,020.3,000.0,029.2,022.7,15.7,0000.0,0004.07,0001.07,0000.80
2024-02-20 14:52:00,SystemResetWarning,0828.3,4.99,000.00,020.9,020.3,000.0,029.2,022.7,15.7,0000.0,0004.00,0001.05,0000.80
2024-02-20 14:53:00,SystemResetWarning,0828.3,5.00,000.00,020.9,020.4,000.0,029.2,022.7,15.6,0000.0,0003.95,0001.03,0000.79
2024-02-20 14:54:00,SystemResetWarning,0828.4,4.99,000.00,020.9,020.4,000.0,029.2,022.7,15.5,0000.0,0003.88,0001.03,0000.79
2024-02-20 14:55:00,SystemResetWarning,0828.3,5.00,000.00,020.9,020.4,000.0,029.2,022.7,15.6,0000.0,0002.15,0001.00,0000.79
2024-02-20 14:56:00,SystemResetWarning,0828.2,5.01,000.00,020.9,020.4,000.0,029.3,022.7,15.8,0000.0,0002.24,0000.99,0000.78
2024-02-20 14:57:00,SystemResetWarning,0828.2,5.01,000.00,020.9,020.4,000.0,029.3,022.7,16.0,0000.0,0002.24,0000.98,0000.77
2024-02-20 14:58:00,SystemResetWarning,0828.2,5.00,000.00,020.9,020.4,000.0,029.3,022.8,15.8,0000.0,0002.36,0001.00,0000.76
2024-02-20 14:59:00,SystemResetWarning,0828.4,4.99,000.00,020.9,020.5,000.0,029.3,022.8,15.4,0000.0,0002.30,0001.00,0000.75
